Simultaneous Nadir Overpasses (SNOs) Predictions

Prediction of SNOs between GOES-17 and TERRA Satellite Orbit:

Table of predicted SNOs for the next 14.0 days since TLE Epoch: 11/30/2019
Index Date Time (GOES-17) GOES-17 Lat,Lon TERRA Lat,Lon Distance(km) Time Diff (sec)
1 12/01/2019 19:39:37 0.04,-137.20 0.01,-137.07 14.45 80
2 12/03/2019 19:27:25 0.04,-137.19 -0.58,-134.11 350.25 80
3 12/04/2019 07:46:10 -0.04,-137.20 -0.47,-139.31 239.88 80
4 12/06/2019 07:36:38 -0.05,-137.19 0.13,-136.35 95.38 80
5 12/06/2019 19:55:14 0.04,-137.18 0.95,-141.51 491.87 80
6 12/08/2019 07:24:26 -0.05,-137.17 0.73,-133.38 430.03 80
7 12/08/2019 19:43:02 0.04,-137.16 0.35,-138.54 157.43 80
8 12/10/2019 19:33:30 0.04,-137.13 -0.26,-135.58 176.25 80
9 12/11/2019 07:52:15 -0.04,-137.13 -0.79,-140.78 414.49 80
10 12/13/2019 07:40:03 -0.04,-137.09 -0.18,-137.82 81.94 80




NCC Satellite Simultaneous Nadir Overpasses (SNOs) Prediction Service
